W9GWP Weather Reports


Display with metric or nautical units.
time (UTC)temp
F
wind
direction
speed
MPH
gust
MPH
rain 1hr
in
rain 24hr
in
rain mn
in
humidity
%
barometer
mb
20260902072831 73 180 0.0 0.0 0.00 0.00 0.00 94 1041.2
20260902071329 73 194 0.0 0.0 0.00 0.00 0.00 94 1040.9
20260902065824 74 180 0.0 1.0 0.00 0.00 0.00 93 1041.1
20260902064323 75 246 0.0 0.0 0.00 0.00 0.00 93 1041.0
20260902062819 75 246 0.0 0.0 0.00 0.00 0.00 92 1041.3
20260902061314 76 246 0.0 0.0 0.00 0.00 0.00 91 1041.3
20260902055813 77 206 0.0 2.0 0.00 0.00 0.00 91 1041.1
20260902054311 77 249 1.0 1.0 0.00 0.00 0.00 91 1041.0
20260902052811 77 229 0.0 0.0 0.00 0.00 0.00 90 1040.9
20260902051307 78 251 0.0 0.0 0.00 0.00 0.00 89 1041.0
20260902045802 79 246 0.0 2.0 0.00 0.02 0.02 87 1040.8
20260902044301 80 228 2.0 3.0 0.00 0.02 0.02 87 1040.9
20260902042757 80 229 0.0 2.0 0.00 0.02 0.02 87 1040.7
20260902041252 80 255 2.0 3.0 0.00 0.02 0.02 87 1040.8
20260902035751 80 240 0.0 2.0 0.00 0.02 0.02 88 1041.1
20260902034247 79 254 0.0 2.0 0.00 0.02 0.02 89 1041.2
20260902032744 79 240 0.0 0.0 0.00 0.02 0.02 88 1041.2
20260902031241 81 243 0.0 1.0 0.00 0.02 0.02 87 1041.4
20260902025736 81 255 0.0 0.0 0.00 0.02 0.02 86 1041.4
20260902024233 82 194 0.0 2.0 0.00 0.02 0.02 85 1041.4
20260902022730 83 236 0.0 2.0 0.00 0.02 0.02 84 1041.3
20260902021226 84 240 1.0 2.0 0.00 0.02 0.02 83 1041.3
20260902015726 84 261 1.0 4.0 0.00 0.02 0.02 81 1040.9
20260902014220 84 227 3.0 4.0 0.00 0.02 0.02 82 1041.1
20260902012715 84 217 3.0 4.0 0.00 0.02 0.02 82 1040.8
20260902011212 84 203 0.0 3.0 0.00 0.02 0.02 81 1040.4
20260902005711 85 180 0.0 3.0 0.00 0.02 0.02 81 1040.5
20260902004208 86 169 0.0 3.0 0.00 0.02 0.02 79 1040.4
20260902002706 86 165 0.0 3.0 0.00 0.02 0.02 80 1040.3
20260902001207 87 182 0.0 5.0 0.00 0.02 0.02 79 1040.3
20260901235702 88 220 0.0 2.0 0.00 0.02 0.02 80 1040.3
20260901234158 89 203 0.0 2.0 0.00 0.02 0.02 78 1040.3
20260901232654 91 151 0.0 2.0 0.00 0.02 0.02 75 1040.1
20260901231154 92 194 2.0 3.0 0.00 0.02 0.02 72 1040.3
20260901225650 92 240 2.0 5.0 0.00 0.02 0.02 71 1040.4
20260901224149 92 254 0.0 3.0 0.00 0.02 0.02 71 1040.3
20260901222647 94 221 0.0 3.0 0.00 0.02 0.02 68 1040.5
20260901221146 93 209 2.0 4.0 0.00 0.02 0.02 67 1040.6
20260901215643 92 230 3.0 5.0 0.00 0.02 0.02 69 1040.4
20260901214142 93 232 4.0 5.0 0.00 0.02 0.02 66 1040.5
20260901212642 93 186 0.0 4.0 0.00 0.02 0.02 66 1040.5
20260901211142 93 275 2.0 5.0 0.00 0.02 0.02 64 1040.7
20260901205639 93 275 2.0 4.0 0.00 0.02 0.02 62 1040.7
20260901204136 92 251 3.0 6.0 0.00 0.02 0.02 63 1040.7
20260901202636 93 245 2.0 6.0 0.00 0.02 0.02 62 1040.9
20260901201133 92 211 4.0 4.0 0.00 0.02 0.02 63 1040.9
20260901195632 92 177 3.0 6.0 0.00 0.02 0.02 61 1041.0
20260901194128 92 200 1.0 4.0 0.00 0.02 0.02 65 1041.2
20260901192625 92 253 0.0 5.0 0.00 0.02 0.02 68 1041.3
20260901191124 92 209 3.0 7.0 0.00 0.02 0.02 66 1041.1
20260901185623 91 180 0.0 5.0 0.00 0.02 0.02 72 1041.2
20260901184119 90 241 3.0 3.0 0.00 0.02 0.02 74 1041.5
20260901182617 88 254 4.0 8.0 0.00 0.02 0.02 75 1041.2
20260901181115 87 191 2.0 5.0 0.00 0.02 0.02 78 1041.4
20260901175614 86 204 5.0 7.0 0.00 0.02 0.02 79 1041.5
20260901174113 87 166 0.0 5.0 0.00 0.02 0.02 81 1041.6
20260901172610 86 232 3.0 3.0 0.00 0.02 0.02 83 1041.7
20260901171108 84 180 1.0 4.0 0.00 0.02 0.02 83 1041.9
20260901165607 83 259 3.0 5.0 0.00 0.02 0.02 86 1042.2
20260901164104 82 240 0.0 2.0 0.00 0.02 0.02 89 1042.1
20260901162600 82 231 0.0 5.0 0.00 0.02 0.02 88 1042.5
20260901161058 81 249 0.0 3.0 0.09 0.02 0.02 88 1042.4
20260901155554 85 238 4.0 4.0 0.00 0.00 0.00 83 1042.1
20260901154051 82 256 3.0 4.0 0.00 0.00 0.00 84 1042.1
20260901152546 82 186 1.0 2.0 0.00 0.00 0.00 86 1042.0
20260901151046 81 204 2.0 3.0 0.00 0.00 0.00 86 1041.9
20260901145542 81 200 0.0 3.0 0.00 0.00 0.00 87 1041.9
20260901144038 81 215 1.0 1.0 0.00 0.00 0.00 87 1041.6
20260901142537 81 216 0.0 2.0 0.00 0.00 0.00 86 1042.0
20260901141032 81 270 0.0 4.0 0.00 0.00 0.00 85 1041.9
20260901135531 80 255 1.0 2.0 0.00 0.00 0.00 86 1041.8
20260901134028 80 212 2.0 5.0 0.00 0.00 0.00 86 1042.0
20260901132526 80 210 2.0 3.0 0.00 0.00 0.00 87 1041.6
20260901131022 79 188 0.0 3.0 0.00 0.00 0.00 88 1041.8
20260901125519 78 198 2.0 2.0 0.00 0.00 0.00 90 1041.9
20260901124015 76 216 2.0 2.0 0.00 0.00 0.00 93 1041.6
20260901122514 74 216 0.0 2.0 0.00 0.00 0.00 96 1041.8
20260901121009 73 173 1.0 2.0 0.00 0.00 0.00 97 1041.4
20260901115506 73 270 0.0 2.0 0.00 0.00 0.00 98 1041.2
20260901114002 72 151 0.0 0.0 0.00 0.00 0.00 98 1041.3
20260901112457 72 254 0.0 2.0 0.00 0.00 0.00 98 1041.2
20260901110955 72 255 0.0 0.0 0.00 0.00 0.00 97 1041.1
20260901105455 72 215 0.0 1.0 0.00 0.00 0.00 97 1040.7
20260901103951 72 203 0.0 0.0 0.00 0.00 0.00 97 1040.7
20260901102447 72 192 0.0 0.0 0.00 0.00 0.00 96 1040.6
20260901100943 73 220 0.0 2.0 0.00 0.00 0.00 96 1040.7
20260901095442 73 172 0.0 1.0 0.00 0.00 0.00 96 1040.7
20260901093941 73 188 0.0 1.0 0.00 0.00 0.00 96 1040.8
20260901092437 73 180 0.0 1.0 0.00 0.00 0.00 95 1040.8
20260901090934 74 194 0.0 1.0 0.00 0.00 0.00 95 1040.7
20260901085431 74 220 2.0 2.0 0.00 0.00 0.00 95 1040.6
20260901083931 73 209 1.0 2.0 0.00 0.00 0.00 95 1040.5
20260901082430 73 215 0.0 2.0 0.00 0.00 0.00 95 1040.5
20260901080926 74 209 0.0 2.0 0.00 0.00 0.00 95 1040.6
20260901075421 74 194 1.0 1.0 0.00 0.00 0.00 95 1040.4
20260901073917 74 188 0.0 0.0 0.00 0.00 0.00 95 1040.3